Regional Weather Roundup
Issued by NWS

Home | Current Version | Previous Version | Text Only | Print | Product List | Glossary Off
Versions: 1 2 3 4 5 6 7 8 9 10 11 12 13 14 15 16 17 18 19 20 21 22 23 24 25 26 27 28 29 30 31 32 33 34 35 36 37 38 39 40 41 42 43 44 45 46 47 48 49 50

000
ASUS43 KBIS 231910
RWRND

NORTH DAKOTA REGIONAL WEATHER ROUNDUP
NATIONAL WEATHER SERVICE BISMARCK ND
100 PM CST TUE JAN 23 2018

NOTE: "FAIR" INDICATES FEW OR NO CLOUDS BELOW 12,000 FEET WITH NO
SIGNIFICANT WEATHER AND/OR OBSTRUCTIONS TO VISIBILITY.


NDZ001>003-009>011-017-232000-
NORTHWEST NORTH DAKOTA

CITY           SKY/WX    TMP DP  RH WIND       PRES   REMARKS
WILLISTON      SUNNY     24  17  74 W10       30.11F WCI  14
MINOT          CLOUDY    21  18  88 NW15      30.09S WCI   8
MINOT AFB      CLOUDY    20  17  91 NW16      30.08R WCI   5
$$

NDZ018>021-031>035-040>046-232000-
SOUTHWEST NORTH DAKOTA

CITY           SKY/WX    TMP DP  RH WIND       PRES   REMARKS
BISMARCK       PTSUNNY   30  26  85 W6        30.09F
DICKINSON      SUNNY     33  22  63 W16       30.06F
GARRISON         N/A     25  19  78 NW12      30.08R WCI  14
HETTINGER ARPT SUNNY     36  21  54 NW18      30.11S
$$

NDZ004>008-012>016-024-026-027-054-232000-
NORTHEAST NORTH DAKOTA

CITY           SKY/WX    TMP DP  RH WIND       PRES   REMARKS
GRAND FORKS    CLOUDY    22  19  89 SW10      30.09F WCI  11
GRND FRKS AFB  CLOUDY    22  18  87 SW8       30.08S WCI  12
DEVILS LAKE    CLOUDY    18  17  96 NW14      30.04F FOG     WCI   4
$$

NDZ022-023-025-028>030-036>039-047>053-232000-
SOUTHEAST NORTH DAKOTA

CITY           SKY/WX    TMP DP  RH WIND       PRES   REMARKS
FARGO          CLOUDY    22  18  85 S6        30.10F WCI  14
JAMESTOWN      MOSUNNY   25  20  81 W6        30.04F WCI  18
$$





USA.gov is the U.S. government's official web portal to all federal, state and local government web resources and services.